DW6561 Weather Reports


time (UTC)temp
C
wind
direction
speed
KPH
gust
KPH
rain 1hr
cm
rain 24hr
cm
rain mn
cm
humidity
%
barometer
mb
20240222110011 5 248 11.3 22.5 0.00 0.00 0.00 86 1023.8
20240222104506 5 207 9.7 20.9 0.00 0.00 0.00 86 1023.8
20240222103008 5 178 9.7 19.3 0.00 0.00 0.00 85 1023.7
20240222101511 5 209 11.3 22.5 0.00 0.00 0.00 85 1023.6
20240222100022 5 161 9.7 19.3 0.00 0.00 0.00 85 1023.6
20240222094505 6 242 9.7 20.9 0.00 0.00 0.00 85 1023.5
20240222093011 6 202 8.0 22.5 0.00 0.00 0.00 84 1023.4
20240222091508 6 161 11.3 25.7 0.00 0.00 0.00 83 1023.3
20240222090021 6 202 11.3 24.1 0.00 0.00 0.00 83 1023.1
20240222084517 6 207 12.9 24.1 0.00 0.00 0.00 83 1022.9
20240222083007 6 92 11.3 29.0 0.00 0.00 0.00 83 1022.8
20240222081507 6 209 11.3 27.4 0.00 0.00 0.00 83 1022.6
20240222080005 6 217 12.9 29.0 0.00 0.00 0.00 83 1022.4
20240222074505 6 158 11.3 27.4 0.00 0.00 0.00 83 1022.4
20240222073010 6 215 12.9 27.4 0.00 0.00 0.00 83 1022.1
20240222071505 6 186 11.3 29.0 0.00 0.00 0.00 84 1022.0
20240222070008 6 186 11.3 25.7 0.00 0.00 0.00 84 1021.9
20240222064515 7 206 12.9 29.0 0.00 0.00 0.00 84 1021.8
20240222063006 7 225 12.9 27.4 0.00 0.00 0.00 85 1021.6
20240222061504 7 190 12.9 30.6 0.00 0.00 0.00 84 1021.4
20240222060008 7 187 12.9 29.0 0.00 0.00 0.00 84 1021.2
20240222054514 7 140 11.3 25.7 0.00 0.00 0.00 84 1021.2
20240222053009 7 202 9.7 24.1 0.00 0.00 0.00 83 1021.0
20240222051509 7 192 12.9 27.4 0.00 0.00 0.00 83 1020.9
20240222050005 7 219 12.9 25.7 0.00 0.00 0.00 83 1020.9
20240222044506 8 133 12.9 25.7 0.00 0.00 0.00 82 1020.7
20240222043008 8 198 9.7 29.0 0.00 0.00 0.00 82 1020.5
20240222041504 7 208 11.3 24.1 0.00 0.00 0.00 82 1020.2
20240222040004 7 109 4.8 17.7 0.00 0.00 0.00 82 1020.2
20240222034507 7 217 4.8 19.3 0.00 0.00 0.00 81 1020.1
20240222033010 7 233 4.8 19.3 0.00 0.00 0.00 81 1019.8
20240222031516 8 130 8.0 16.1 0.00 0.00 0.00 80 1019.7
20240222030004 8 96 6.4 16.1 0.00 0.00 0.00 79 1019.6
20240222024504 7 187 4.8 16.1 0.00 0.00 0.00 80 1019.3
20240222023005 7 138 6.4 19.3 0.00 0.00 0.00 82 1019.2
20240222021506 7 202 8.0 19.3 0.00 0.00 0.00 83 1019.1
20240222020009 7 217 6.4 20.9 0.00 0.00 0.00 83 1019.1
20240222014508 7 209 8.0 17.7 0.00 0.00 0.00 80 1018.8
20240222013006 7 126 8.0 19.3 0.00 0.00 0.00 78 1018.7
20240222011506 8 163 3.2 11.3 0.00 0.00 0.00 77 1018.6
20240222010009 8 178 1.6 14.5 0.00 0.00 0.00 75 1018.6
20240222004505 9 201 1.6 9.7 0.00 0.00 0.00 74 1018.6
20240222003004 9 178 0.0 6.4 0.00 0.00 0.00 72 1018.5
20240222001516 10 262 0.0 8.0 0.00 0.00 0.00 71 1018.3
20240222000010 10 161 8.0 17.7 0.00 0.00 0.00 68 1018.2
20240221234516 11 306 6.4 16.1 0.00 0.00 0.00 61 1017.8
20240221233008 12 276 6.4 16.1 0.00 0.00 0.00 59 1017.7
20240221231508 12 256 3.2 16.1 0.00 0.00 0.00 61 1017.6
20240221230008 11 193 3.2 16.1 0.00 0.00 0.00 65 1017.7
20240221224509 10 166 1.6 6.4 0.00 0.00 0.00 75 1017.7
20240221223004 10 94 0.0 4.8 0.00 0.00 0.00 77 1017.7
20240221221516 10 290 0.0 4.8 0.00 0.00 0.00 76 1017.6
20240221220007 10 309 0.0 4.8 0.00 0.00 0.00 76 1017.5
20240221214508 10 346 0.0 6.4 0.00 0.00 0.00 74 1017.5
20240221213024 10 118 0.0 6.4 0.00 0.00 0.00 76 1017.1
20240221211511 9 102 0.0 4.8 0.00 0.00 0.00 77 1017.1
20240221210014 9 98 1.6 9.7 0.00 0.00 0.00 78 1017.1
20240221204509 8 44 1.6 9.7 0.00 0.00 0.00 79 1017.1
20240221203009 8 43 0.0 6.4 0.00 0.00 0.00 80 1017.1
20240221201511 8 112 3.2 6.4 0.00 0.00 0.00 80 1017.1
20240221200009 7 96 0.0 9.7 0.00 0.00 0.00 83 1017.1
20240221194509 7 113 3.2 6.4 0.00 0.00 0.00 84 1017.1
20240221193007 7 150 1.6 6.4 0.00 0.00 0.00 85 1017.0
20240221191509 7 101 3.2 6.4 0.00 0.00 0.00 86 1017.0
20240221190012 7 113 0.0 4.8 0.00 0.00 0.00 87 1017.0
20240221184515 7 44 0.0 3.2 0.00 0.00 0.00 87 1016.7
20240221183009 6 72 0.0 3.2 0.00 0.00 0.00 87 1016.7
20240221181512 6 94 0.0 4.8 0.00 0.00 0.00 87 1016.6
20240221180009 6 101 0.0 3.2 0.00 0.00 0.00 88 1016.4
20240221174509 6 153 0.0 3.2 0.00 0.00 0.00 89 1016.2
20240221173014 6 153 0.0 3.2 0.00 0.00 0.00 89 1016.0
20240221171511 6 153 0.0 3.2 0.00 0.00 0.00 90 1015.8
20240221170023 5 153 0.0 3.2 0.00 0.00 0.00 90 1015.7
20240221164511 5 153 0.0 3.2 0.00 0.00 0.00 92 1015.7
20240221163011 5 153 0.0 1.6 0.00 0.00 0.00 93 1015.5
20240221161518 5 153 0.0 0.0 0.00 0.00 0.00 93 1015.2
20240221160011 4 153 0.0 1.6 0.00 0.00 0.00 93 1015.1
20240221154513 4 153 0.0 0.0 0.00 0.00 0.00 93 1015.0
20240221153007 4 153 0.0 1.6 0.00 0.00 0.00 93 1014.9
20240221151507 4 153 0.0 1.6 0.00 0.00 0.00 93 1014.8
20240221150012 4 153 0.0 3.2 0.00 0.03 0.00 93 1014.7
20240221144509 4 153 0.0 3.2 0.00 0.03 0.00 93 1014.5
20240221143009 4 153 0.0 3.2 0.00 0.03 0.00 92 1014.6
20240221141510 4 194 0.0 1.6 0.00 0.03 0.00 92 1014.5
20240221140009 4 194 0.0 1.6 0.00 0.03 0.00 92 1014.3
20240221134508 4 194 0.0 0.0 0.00 0.03 0.00 92 1014.4
20240221133009 4 194 0.0 3.2 0.00 0.03 0.00 91 1014.2
20240221131513 4 245 0.0 1.6 0.00 0.03 0.00 91 1014.0
20240221130016 4 246 0.0 0.0 0.00 0.03 0.00 91 1014.0
20240221124509 4 245 0.0 1.6 0.00 0.03 0.00 91 1014.2
20240221123009 5 245 0.0 0.0 0.00 0.03 0.00 91 1014.1
20240221121506 5 246 0.0 0.0 0.00 0.03 0.00 91 1014.1
20240221120019 5 245 0.0 0.0 0.00 0.03 0.00 91 1014.1
20240221114512 5 246 0.0 0.0 0.00 0.03 0.00 91 1013.8
20240221113011 5 245 0.0 1.6 0.00 0.03 0.00 91 1013.7
20240221111517 5 245 0.0 1.6 0.00 0.03 0.00 91 1013.7